sat.trackr.live / text

‹ back to catalog

STARLINK-2557

NORAD 48299 · 2021-036Z

PAYLOAD ACTIVE UNKNOWN

§ Identity

Operator
Country
US
Launch date
2021-04-29
Launch site
AFETR
Launch vehicle
Mass (kg)
RCS (m²)

Purposes: comms

External: N2YO · Heavens-Above · Gunter

§ Orbital elements

Epoch: 2026-09-19T11:01:19.911936Z

Period
94.01 min
Inclination
53.1601°
Eccentricity
0.0001302
Mean motion
15.31712006 rev/d
Perigee alt
469.8 km
Apogee alt
471.6 km
Semi-major
6,848.8 km
B*
4.4266e-5
RAAN
253.5775°
Arg perigee
82.2847°
Mean anomaly
277.8302°
Rev number
29,810

§ Raw data

STARLINK-25571 48299U 21036Z   26262.45925824  .00001009  00000+0  44266-4 0  99962 48299  53.1601 253.5775 0001302  82.2847 277.8302 15.31712006298106

JSON: /api/v1/satellites/48299 · /tle

For live sub-satellite position, see the globe view (requires WebGL).

§ Visibility from observer

Set your observer location to see the next 7 days of passes ≥ 10°. The values pass through the URL so the page stays shareable.

No JS? Fill the form by hand. The geolocation button needs JavaScript.